STARLINK-32787, 62809

Orbit data source: Space-Track

STARLINK-32787, 62809 is a payload satellite owned by SpaceX/Seattle (US) in LEO that was launched on Fri, 24 Jan 2025 UTC via an FALCON 9 launch vehicle from the Air Force Western Test Range (AFWTR). Payload-class satellites include a variety of spacecraft equipped with specific instruments for various scientific and technological missions. These include communications satellites like Starlink; space stations such as the ISS; scientific satellites like the Hubble; Earth observation satellites from companies like Planet Labs, Umbra, and HawkEye 360; GPS; miniature CubeSats for education and research; and military/defense satellites.

Loading next visibility...
Identifier
62809, 2025-018D
Orbit
LEO
Last TLE update
1 day ago
Origin
Manufacturer
SpaceX/Seattle
Mission
Operational Commercial Communications
Bus & Motor
STARLINK V2M, Unknown motor
Mass
730 kg wet, ~700 kg dry
Launch date (UTC)
2025-01-24 (3 months ago)
Launch vehicle
FALCON 9
Launch site
Air Force Western Test Range (AFWTR)
Object type
Payload
Rocket body
Debris
Shape & HBR
Box + 2 Pan, 29 m
Radar Cross Section
33.884 m², Large (>1 m²)

Expand to show TLE details & history

TLE from 1 day ago
0 STARLINK-32787
1 62809U 25018D   25127.87279284  .00213116  00000-0  49364-2 0  9997
2 62809  53.1617 291.7091 0002089  91.7021 268.4224 15.41141319 16328
Epoch: 2025-05-07T20:56Z
Definitive object data (Epoch: 2025-05-07T20:56:49.301Z)
Latitude
-0°
Longitude
111.55227°
Altitude
443.683 km
Speed
7.647 km/s
True Right ascension
19h 26m 50s
True Declination
0° 00' 00"
Sunlit
Object was in full shadow at TLE epoch
Visualization TLE readout
Latitude
46.81958°
Longitude
-127.52839°
Altitude
444.799 km
Speed
7.652 km/s
Apparent Right ascension
02h 52m 23s
Apparent Declination
5° 19' 48"
Sunlit
Object is in daylight
Visualization observer readout
Local Sidereal Time
14:16:00
Azimuth
347.365° N
Elevation
-43.984°
Doppler factor
1
Orbital elements
Apogee altitude
444.422 km
Perigee altitude
441.572 km
Semi-major axis
6,821.134 km
Eccentricity
0.0002089
Inclination
53.1617°
RAAN
291.7091°
Arg. of periapsis
91.7021°
True anomaly
268.39847°
Mean anomaly
268.4224°
Eccentric anomaly
268.41044°
Mean motion
3.85264 °/min
BSTAR
0.0049364
Orbital period
93.44 mins
Loading maneuver chart data...
Loading SW <> Apogee altitude chart data...
Loading historical data...
Loading historical data...
Loading historical data...
Loading historical data...
Loading historical data...
Loading historical data...
Loading historical data...

STARLINK-32787 Visibility forecast

Observer location: undefined°, undefined°

Span
Click to sort rows by Start time (UTC) header in descending order
Start Az.
Max El. time (UTC)
Max El. Az.
Max El.
End time (UTC)
End Az.
4 mins2025-05-09 13:37:13.563Z253.542° W2025-05-09 13:39:13.563Z359.329° N38.469°2025-05-09 13:41:13.563Z39.475° NE
4 mins2025-05-09 20:09:13.563Z302.724° NW2025-05-09 20:10:13.563Z286.307° WNW41.325°2025-05-09 20:13:13.563Z137.179° SSE
|